Location: ????????
(37.9452°N, 23.1472°E)
Time: 03:05:01
(UTC+00:00)

SL-27 R/B - Pass Details

Date: 18 April 2024
Orbit: 338 x 361 km, 74.7° (Epoch: 20 May)

Event Time Altitude Azimuth Distance (km) Brightness Sun altitude
Rises 17:43:58 0° 357° (N) 2,158 6.2 -7.9°
Reaches altitude 10° 17:46:14 10° 14° (NNE) 1,304 4.8 -8.3°
Maximum altitude 17:48:29 21° 67° (ENE) 839 3.4 -8.7°
Enters shadow 17:50:08 14° 111° (ESE) 1,104 3.7 -9.0°
